Temp
4 3 3 2 1 1 2 2 1 1 2 2 3 3 3 3 3 2 3 3 4 5 4 5 5 5 5 6 6 6 7 7 8 7 7 8 7 7 7 7 6 5 6
2 2 1 1 1 1 1 1 1 2 2 2 2 3 2 2 2 2 1 1 2 3 4 4 5 5 5 6 6 6 5 6 6 8 7 6 6 6 7 7 6 5 5
1 1 1 1 0 1 0 0 -0 -0 -0 1 1 1 1 1 1 -0 0 0 1 1 1 3 4 4 4 4 5 5 6 6 5 6 6 5 5 5 6 6 6 5 5
1 1 0 -1 -1 -1 -0 0 -0 -0 -0 -1 1 1 1 1 -0 -1 -0 0 1 2 2 2 2 4 3 4 5 5 5 5 5 5 5 5 5 4 5 5 4 5 4
0 1 1 -1 -1 -1 -1 -0 -1 -1 -1 -1 -1 -1 -0 -0 -1 -1 -1 0 1 2 2 2 2 3 3 4 4 4 5 5 5 5 5 5 3 3 3 4 4 3 4
-1 1 1 -1 -1 -1 -1 -1 -2 -2 -1 -1 -2 -2 -2 -1 -2 -2 -2 -1 0 0 1 2 2 2 2 3 3 4 4 4 4 4 4 4 4 3 2 2 2 1 1
-1 -1 -1 -1 -1 -0 -0 0 -1 -2 -2 -2 -3 -3 -3 -3 -3 -2 -0 -0 -0 -0 -1 -0 1 1 2 2 3 4 3 4 4 5 4 4 4 4 3 2 1 3 1
-1 -1 -2 -2 -2 -1 0 -2 -3 -3 -3 -3 -4 -4 -4 -4 -4 -3 -1 -1 -1 -1 -0 -0 -1 -0 0 1 2 3 3 3 4 4 4 5 5 4 3 3 2 1 0
-1 -1 -1 -1 -2 -3 -3 -4 -4 -4 -3 -4 -4 -3 -4 -4 -4 -3 -2 -3 -3 -2 -1 -1 -0 0 -0 0 0 2 1 2 3 4 4 3 4 4 3 1 -0 -0 -1
-0 -1 -1 -2 -2 -2 -3 -4 -4 -4 -4 -4 -4 -4 -5 -4 -4 -4 -4 -4 -4 -4 -2 -1 -1 -1 -1 -0 -1 -1 -1 0 1 2 3 3 3 2 2 2 1 -0 -2
-0 -0 -2 -2 -3 -3 -4 -5 -5 -4 -5 -4 -4 -4 -5 -4 -4 -4 -4 -5 -5 -5 -3 -1 -1 -1 -1 -0 -0 -1 -2 -1 -0 1 2 2 2 1 1 1 1 1 -1
-0 -1 -1 -2 -3 -3 -4 -5 -5 -5 -5 -4 -4 -4 -4 -4 -4 -5 -5 -4 -5 -5 -3 -2 -2 -1 -1 -1 -0 0 -1 -2 -1 -1 1 2 2 1 1 0 1 1 1
-0 -1 -2 -2 -3 -3 -4 -4 -5 -5 -5 -5 -5 -5 -5 -5 -5 -5 -3 -3 -3 -3 -3 -3 -3 -2 -1 -1 -0 -0 -1 -2 -2 -1 -0 1 2 2 1 -0 -0 -1 -2
-0 -1 -2 -3 -3 -3 -4 -5 -6 -5 -5 -5 -6 -6 -6 -6 -5 -4 -4 -3 -3 -3 -3 -3 -3 -3 -2 -3 -2 -2 -2 -2 -2 -2 -1 -0 0 -0 0 -0 -1 -2 -3
-1 -1 -2 -3 -4 -4 -5 -5 -5 -5 -6 -6 -6 -6 -6 -5 -5 -5 -5 -4 -4 -4 -4 -4 -4 -4 -4 -4 -3 -2 -2 -1 -1 -1 -1 -1 -0 -0 -1 -1 -2 -3 -3
-1 -2 -2 -3 -4 -5 -5 -5 -5 -5 -6 -6 -6 -6 -6 -6 -5 -5 -5 -5 -4 -4 -4 -5 -4 -5 -5 -5 -4 -3 -2 -2 -1 -1 -1 -0 -0 -1 -2 -3 -3 -3 -4
-2 -3 -3 -4 -5 -5 -5 -5 -6 -5 -6 -6 -6 -6 -6 -6 -6 -6 -6 -6 -5 -5 -5 -6 -5 -5 -5 -5 -5 -4 -4 -3 -2 -1 -1 -1 -1 -1 -3 -4 -4 -4 -5
-4 -4 -4 -4 -5 -5 -5 -6 -6 -5 -6 -7 -7 -7 -7 -6 -6 -6 -6 -6 -6 -6 -6 -6 -5 -6 -5 -5 -5 -5 -4 -4 -3 -3 -2 -2 -2 -3 -4 -4 -5 -5 -5
-5 -5 -6 -6 -6 -6 -7 -6 -6 -6 -7 -7 -7 -7 -7 -7 -6 -6 -6 -6 -6 -6 -6 -6 -6 -6 -5 -5 -5 -5 -5 -4 -4 -3 -3 -3 -3 -3 -4 -5 -5 -5 -6
-6 -6 -6 -7 -7 -7 -7 -7 -7 -7 -7 -7 -7 -7 -7 -7 -6 -6 -6 -6 -6 -6 -6 -6 -6 -5 -6 -5 -5 -5 -5 -5 -4 -4 -4 -4 -4 -4 -5 -5 -5 -6 -6
-8 -8 -8 -8 -8 -8 -8 -8 -8 -7 -7 -7 -7 -7 -8 -8 -8 -7 -6 -6 -6 -6 -6 -6 -6 -5 -5 -5 -5 -6 -6 -5 -5 -5 -4 -4 -4 -5 -5 -5 -6 -6 -7
-10 -9 -9 -9 -9 -9 -9 -9 -9 -8 -8 -8 -8 -8 -8 -8 -8 -8 -7 -7 -7 -7 -7 -6 -6 -6 -5 -6 -5 -6 -6 -6 -5 -5 -5 -5 -5 -5 -5 -6 -6 -6 -7
-10 -10 -10 -10 -10 -10 -10 -10 -10 -9 -9 -9 -9 -9 -9 -9 -8 -8 -8 -7 -7 -7 -7 -7 -6 -6 -5 -6 -6 -6 -6 -6 -6 -5 -5 -5 -5 -6 -6 -6 -6 -7 -7
-12 -11 -11 -12 -12 -12 -12 -11 -11 -11 -10 -10 -10 -9 -9 -9 -9 -9 -9 -8 -8 -7 -7 -7 -6 -6 -6 -6 -6 -6 -6 -7 -7 -6 -6 -6 -6 -6 -6 -6 -7 -7 -7
-14 -13 -13 -13 -13 -13 -13 -12 -12 -12 -12 -11 -11 -10 -10 -10 -10 -10 -10 -9 -8 -8 -7 -6 -6 -6 -6 -6 -6 -6 -6 -7 -7 -7 -6 -6 -6 -6 -6 -6 -7 -7 -7
-15 -14 -14 -14 -14 -14 -14 -13 -13 -13 -12 -12 -12 -11 -11 -11 -10 -10 -10 -10 -9 -8 -8 -8 -7 -6 -6 -6 -6 -6 -6 -7 -7 -7 -6 -6 -6 -6 -6 -6 -7 -7 -7
Height
1476 1471 1466 1462 1458 1454 1447 1444 1442 1441 1437 1434 1431 1428 1425 1421 1419 1416 1412 1409 1407 1406 1406 1405 1403 1401 1395 1397 1399 1398 1401 1402 1406 1414 1423 1431 1434 1448 1454 1459 1472 1482 1490
1471 1466 1462 1459 1456 1453 1448 1446 1442 1438 1435 1432 1428 1424 1421 1417 1414 1411 1407 1405 1402 1400 1397 1396 1394 1391 1391 1391 1393 1396 1402 1400 1402 1405 1413 1421 1426 1434 1444 1447 1462 1474 1482
1465 1461 1458 1455 1452 1450 1447 1443 1440 1436 1433 1429 1424 1421 1417 1413 1410 1408 1406 1403 1399 1394 1392 1391 1391 1393 1393 1391 1389 1392 1397 1400 1402 1405 1408 1414 1421 1429 1435 1440 1451 1462 1475
1459 1456 1453 1451 1448 1447 1444 1441 1437 1434 1430 1425 1421 1418 1414 1411 1408 1406 1403 1400 1395 1389 1387 1387 1388 1388 1391 1387 1385 1388 1392 1395 1398 1401 1406 1409 1417 1423 1429 1434 1445 1454 1464
1454 1451 1449 1448 1445 1444 1441 1438 1434 1431 1426 1421 1417 1413 1410 1408 1405 1402 1398 1394 1390 1388 1386 1386 1386 1385 1387 1385 1384 1385 1387 1390 1395 1398 1400 1405 1412 1420 1424 1429 1437 1447 1459
1451 1448 1445 1443 1442 1439 1436 1433 1429 1425 1421 1417 1414 1410 1407 1405 1402 1398 1394 1391 1389 1386 1384 1383 1383 1381 1380 1382 1381 1382 1387 1388 1391 1392 1396 1397 1408 1418 1422 1426 1432 1438 1452
1447 1445 1443 1439 1438 1434 1431 1427 1425 1422 1417 1414 1411 1407 1404 1401 1398 1393 1389 1386 1385 1383 1381 1380 1379 1380 1380 1379 1377 1379 1382 1384 1388 1390 1393 1392 1400 1408 1417 1424 1426 1427 1438
1443 1441 1441 1437 1434 1431 1427 1424 1422 1419 1414 1411 1408 1404 1401 1398 1394 1390 1386 1383 1381 1380 1378 1376 1376 1374 1375 1373 1370 1371 1376 1380 1385 1387 1386 1389 1394 1402 1407 1412 1418 1430 1436
1440 1438 1438 1435 1430 1428 1423 1421 1419 1415 1411 1407 1404 1401 1397 1394 1391 1388 1384 1381 1379 1377 1376 1374 1371 1368 1368 1365 1366 1366 1369 1374 1378 1380 1382 1385 1389 1395 1403 1412 1419 1422 1431
1438 1435 1434 1431 1428 1425 1421 1418 1415 1412 1408 1405 1402 1399 1394 1390 1389 1386 1383 1379 1376 1372 1370 1368 1369 1369 1367 1367 1364 1365 1368 1368 1369 1375 1376 1377 1384 1391 1396 1403 1408 1416 1426
1433 1432 1431 1428 1425 1422 1418 1414 1411 1408 1406 1403 1399 1396 1391 1388 1386 1382 1379 1375 1372 1368 1364 1363 1362 1361 1360 1360 1359 1359 1359 1362 1363 1367 1370 1372 1378 1386 1392 1398 1402 1407 1415
1428 1428 1426 1425 1422 1418 1415 1411 1408 1405 1402 1399 1395 1391 1387 1385 1384 1380 1377 1373 1369 1364 1360 1358 1354 1352 1350 1349 1348 1347 1349 1351 1353 1357 1361 1363 1369 1375 1382 1390 1395 1403 1407
1422 1422 1421 1420 1417 1414 1411 1408 1404 1403 1399 1397 1393 1389 1383 1382 1380 1376 1373 1369 1366 1362 1359 1354 1351 1347 1343 1337 1335 1333 1334 1337 1340 1347 1350 1353 1360 1369 1377 1383 1391 1398 1404
1415 1414 1415 1414 1412 1410 1408 1404 1402 1400 1397 1395 1391 1386 1382 1379 1376 1372 1368 1365 1361 1358 1354 1350 1347 1343 1339 1333 1329 1327 1326 1328 1331 1338 1342 1346 1355 1359 1364 1371 1380 1389 1397
1406 1406 1407 1407 1407 1405 1403 1400 1399 1396 1393 1391 1388 1385 1382 1378 1375 1371 1366 1362 1358 1354 1349 1346 1343 1338 1334 1330 1324 1319 1318 1319 1322 1328 1331 1336 1343 1349 1357 1364 1372 1380 1388
1399 1399 1399 1399 1400 1399 1398 1396 1394 1392 1389 1387 1385 1383 1381 1378 1373 1369 1364 1360 1355 1351 1347 1343 1339 1335 1330 1325 1320 1315 1313 1313 1317 1320 1323 1329 1335 1341 1348 1357 1365 1371 1380
1390 1391 1391 1392 1393 1393 1392 1390 1386 1385 1384 1383 1381 1379 1377 1374 1370 1366 1361 1355 1351 1348 1344 1340 1335 1331 1326 1322 1317 1312 1310 1309 1310 1312 1317 1322 1328 1333 1341 1348 1356 1366 1374
1383 1385 1385 1386 1387 1387 1386 1385 1383 1381 1378 1376 1375 1374 1371 1368 1366 1362 1357 1351 1348 1345 1342 1337 1332 1328 1324 1319 1314 1310 1307 1307 1308 1310 1312 1317 1322 1328 1335 1343 1351 1359 1366
1382 1381 1381 1381 1381 1381 1381 1380 1379 1377 1375 1372 1370 1368 1366 1363 1360 1357 1353 1349 1345 1341 1338 1334 1330 1325 1320 1316 1312 1308 1306 1306 1307 1309 1312 1315 1320 1325 1332 1339 1347 1354 1359
1379 1377 1375 1375 1376 1376 1376 1374 1373 1372 1370 1368 1366 1363 1360 1356 1353 1351 1349 1346 1342 1338 1334 1330 1326 1321 1317 1313 1310 1307 1305 1305 1306 1308 1311 1314 1318 1322 1328 1334 1340 1346 1353
1377 1374 1372 1371 1370 1370 1370 1368 1367 1366 1364 1362 1360 1359 1357 1354 1351 1348 1345 1342 1338 1334 1330 1326 1322 1318 1315 1311 1308 1305 1304 1305 1305 1306 1308 1312 1316 1320 1326 1332 1337 1344 1352
1375 1372 1370 1368 1367 1365 1364 1363 1361 1361 1359 1357 1354 1353 1352 1349 1346 1343 1340 1337 1334 1330 1326 1322 1318 1315 1312 1308 1306 1304 1303 1303 1304 1305 1307 1310 1314 1318 1323 1329 1334 1341 1348
1372 1369 1367 1364 1363 1361 1359 1357 1355 1354 1353 1351 1348 1347 1346 1343 1340 1337 1334 1331 1328 1324 1321 1317 1313 1310 1308 1305 1302 1300 1299 1300 1301 1303 1305 1308 1312 1316 1320 1326 1331 1338 1345
1367 1364 1362 1359 1356 1354 1352 1350 1349 1347 1346 1344 1341 1340 1339 1337 1335 1332 1328 1324 1322 1319 1315 1312 1309 1306 1303 1301 1298 1297 1296 1296 1298 1301 1304 1307 1311 1315 1319 1325 1330 1337 1345
1359 1356 1353 1351 1348 1346 1343 1341 1340 1338 1337 1335 1334 1332 1331 1330 1328 1326 1323 1319 1316 1313 1310 1306 1304 1301 1298 1296 1294 1293 1292 1292 1295 1297 1301 1304 1308 1313 1317 1323 1329 1336 1343
1351 1348 1346 1343 1340 1338 1336 1334 1332 1330 1328 1327 1325 1324 1323 1322 1320 1318 1316 1313 1309 1306 1304 1301 1298 1295 1294 1292 1290 1289 1288 1289 1291 1294 1298 1302 1306 1311 1316 1321 1327 1334 1340
Wind_Speed
32 33 32 18 18 16 18 13 14 15 15 16 16 19 20 21 22 23 22 21 22 22 18 24 26 27 26 29 23 20 35 42 38 48 50 50 58 59 61 58 57 61 59
29 25 25 11 14 14 14 16 15 15 15 15 17 19 20 18 17 18 17 16 16 15 18 16 20 23 26 30 22 26 28 26 36 38 47 48 59 63 63 61 63 63 59
28 22 23 16 17 16 14 16 20 22 21 20 20 21 21 20 18 16 16 16 16 16 18 18 20 22 23 23 26 23 25 27 23 31 36 42 52 54 60 65 65 64 62
28 20 21 17 15 14 14 14 15 16 20 23 22 20 19 17 16 16 18 22 21 18 19 19 18 19 25 19 23 24 27 26 31 28 28 39 49 50 60 61 60 66 65
27 22 18 17 14 15 17 18 18 20 22 23 21 21 18 15 15 20 20 19 18 17 14 13 13 16 19 15 18 16 22 27 29 37 37 32 43 44 50 59 66 65 62
24 19 16 17 19 19 20 21 20 19 20 21 21 21 21 20 17 17 19 20 19 19 16 12 10 10 13 20 11 22 17 19 28 33 40 39 36 48 50 52 55 60 49
19 17 17 20 20 19 18 17 17 18 18 20 19 20 21 21 21 20 19 20 20 19 19 18 15 11 11 13 16 20 18 33 27 26 34 40 42 45 57 55 59 72 62
17 17 20 19 18 16 15 15 17 18 19 19 20 21 22 23 22 20 20 20 20 18 17 18 18 17 13 12 14 15 21 27 35 31 31 29 35 42 57 67 68 60 54
18 20 23 19 18 16 15 14 16 18 19 18 19 21 22 21 19 17 18 20 22 21 19 18 18 18 17 15 17 19 19 20 32 36 27 23 31 39 48 57 48 52 53
19 21 23 18 17 20 15 14 16 17 18 17 19 20 22 20 17 17 18 21 23 24 23 22 20 19 17 16 17 18 24 25 19 33 39 31 34 43 52 62 68 63 58
17 22 21 17 18 18 14 15 15 16 17 17 17 20 18 16 18 17 19 21 22 25 27 27 24 23 22 21 20 21 22 23 21 24 32 39 38 40 54 65 70 73 64
18 21 21 17 18 18 17 16 14 14 16 18 19 20 20 18 18 18 17 18 20 26 28 27 27 27 28 27 26 24 23 24 27 26 31 43 46 48 54 61 68 69 68
18 18 16 17 20 20 19 17 12 13 15 18 21 23 24 23 22 19 21 20 20 22 23 25 26 26 28 30 30 26 23 26 29 35 38 44 49 49 51 60 62 62 58
18 18 17 18 20 20 20 16 13 13 15 17 21 23 25 25 25 23 23 23 22 23 24 25 25 26 24 26 27 28 25 30 34 35 39 41 41 48 55 60 62 61 54
22 22 22 18 20 19 16 16 20 13 12 18 19 18 22 25 24 23 23 25 24 23 26 26 26 25 25 25 25 24 25 27 33 35 36 43 45 49 54 57 57 59 55
23 22 20 18 19 17 13 20 21 13 14 13 13 14 16 19 20 22 23 24 21 21 24 25 25 25 25 25 23 21 17 23 32 34 40 46 48 50 54 56 58 61 55
22 18 18 16 15 15 18 22 21 19 17 19 13 15 12 17 19 20 24 23 19 19 21 23 24 25 25 25 21 17 18 21 28 37 44 45 47 49 54 55 59 56 52
14 17 18 19 16 16 19 18 15 17 20 26 17 16 15 16 20 21 21 22 22 20 20 24 24 25 24 23 19 15 15 19 28 37 41 45 47 49 53 54 57 57 56
15 15 17 15 16 17 15 15 14 17 20 20 22 21 21 19 19 20 21 21 23 23 24 24 24 24 23 21 19 13 12 14 21 31 38 40 44 48 52 56 57 57 57
21 17 16 13 15 16 15 15 16 17 18 21 19 22 23 24 24 22 21 22 23 24 25 25 25 24 22 21 17 13 11 13 17 25 34 38 41 45 49 53 55 57 57
15 14 13 16 15 15 16 16 18 20 21 20 21 21 21 25 24 21 22 22 23 25 26 26 24 22 21 19 16 13 12 13 17 23 30 34 38 42 45 50 53 54 53
20 19 17 15 16 17 17 17 19 20 23 25 25 24 23 26 25 24 23 21 24 25 25 23 23 21 20 18 15 13 12 16 16 22 27 33 36 40 44 47 51 51 51
20 17 16 17 18 21 22 21 22 24 26 26 27 28 27 27 27 27 25 24 24 24 24 23 22 22 19 17 15 14 13 16 19 19 25 31 36 40 44 47 49 50 51
28 29 30 30 29 28 28 30 32 33 31 31 30 29 27 28 28 28 27 27 24 23 23 22 20 21 20 18 15 14 14 15 18 21 24 29 35 40 43 46 48 50 51
30 29 29 28 28 29 30 31 30 28 29 30 28 28 29 27 27 28 26 28 26 21 22 20 20 19 19 18 15 14 13 16 19 19 25 30 35 40 43 46 49 50 52
28 27 27 26 26 26 27 29 31 30 28 28 28 27 26 27 27 26 27 28 26 23 22 21 18 16 19 17 14 13 12 15 20 22 23 31 36 40 41 44 46 49 52
Wind_Direction
316 323 329 340 348 356 350 359 344 315 309 318 322 318 316 308 301 296 297 297 286 275 281 286 291 291 293 272 271 253 226 210 213 213 214 211 209 209 210 208 204 201 201
325 323 334 312 331 339 344 339 331 339 336 333 334 335 333 333 327 323 326 313 310 302 279 279 284 306 294 268 253 246 261 215 204 216 213 204 200 206 208 205 203 201 199
325 324 327 305 308 302 319 351 351 344 341 336 336 332 331 334 333 328 321 313 312 310 300 284 276 275 295 286 252 236 236 245 242 227 216 204 197 197 201 203 199 199 201
320 323 324 320 324 316 320 329 330 330 327 323 324 325 325 332 315 312 309 309 312 315 308 300 284 267 273 268 243 260 237 245 239 226 217 201 198 190 195 186 184 193 190
321 321 312 307 311 301 299 310 308 308 308 319 328 323 323 325 317 314 318 324 332 331 325 308 286 265 250 276 266 276 247 237 236 229 219 209 195 183 182 185 187 184 190
318 319 311 311 303 306 305 300 306 317 323 324 326 328 327 326 321 329 328 329 331 334 334 325 304 284 270 256 281 241 261 239 236 224 216 193 203 200 187 181 176 172 164
316 320 327 319 310 311 311 310 318 324 328 336 339 337 334 329 324 321 318 322 327 333 338 338 334 318 286 269 249 244 265 257 247 234 225 212 203 208 197 186 181 187 181
327 320 323 316 314 310 310 319 327 328 332 333 334 336 337 333 330 326 323 325 327 329 329 330 328 329 330 302 276 255 238 244 247 228 241 231 225 219 210 206 195 181 182
315 312 312 314 315 314 318 323 325 328 332 336 337 336 338 334 336 332 327 329 326 324 323 326 329 328 322 319 292 268 253 246 245 237 240 253 230 225 212 194 179 182 179
295 297 305 314 318 323 317 321 322 328 332 332 336 338 340 336 335 333 334 323 322 322 322 324 323 320 317 307 300 267 251 242 251 245 226 231 225 218 212 213 198 189 179
284 296 303 307 314 317 313 317 323 330 336 332 330 327 342 343 332 327 325 323 321 318 320 323 320 317 311 304 297 278 260 248 242 248 243 231 224 218 208 209 213 208 194
279 290 302 302 304 307 302 313 320 326 328 331 336 339 349 347 337 332 326 321 319 314 320 320 319 316 311 303 297 291 267 249 236 242 237 226 227 217 211 210 211 214 219
274 288 302 297 301 304 302 305 320 324 330 330 334 336 343 342 342 338 336 329 323 317 318 319 318 314 309 304 301 290 263 246 236 234 235 231 226 222 215 210 211 208 209
255 265 278 286 292 296 304 312 320 318 325 326 330 335 338 335 338 340 336 331 327 323 321 321 320 317 315 314 303 290 271 247 235 237 233 232 229 217 213 213 209 202 201
251 263 278 282 288 297 307 313 320 327 317 320 329 330 333 330 336 333 331 331 327 323 318 319 321 325 323 321 312 295 270 248 234 233 228 226 220 218 212 210 204 197 197
256 260 271 269 282 295 296 302 305 322 322 318 324 327 330 324 327 333 333 330 326 319 315 320 321 324 324 323 320 311 275 242 227 231 225 224 221 214 209 204 200 201 194
246 252 256 267 284 289 292 307 311 319 319 320 324 321 336 328 328 326 333 330 331 325 320 320 322 325 323 323 321 318 289 261 236 223 217 219 220 215 205 199 198 195 193
233 240 257 279 270 281 288 304 308 313 311 317 320 324 334 333 331 329 336 335 331 328 325 323 322 323 322 321 324 323 306 252 227 218 218 216 213 208 197 193 193 190 192
301 284 293 287 277 287 296 298 303 308 310 320 321 330 333 330 331 336 340 337 335 328 323 320 322 321 321 319 324 324 314 278 240 223 217 215 211 206 195 192 189 191 191
295 293 294 291 287 290 291 293 299 299 304 316 323 326 330 334 333 335 334 334 331 325 322 319 317 318 317 316 318 313 313 286 257 230 218 215 210 206 197 193 189 191 191
322 315 295 293 287 279 284 290 293 298 305 306 312 319 320 323 326 322 324 325 326 324 319 316 314 313 314 313 308 302 291 280 256 237 224 217 213 205 201 197 192 192 188
329 325 315 306 298 295 296 296 299 302 303 303 305 311 312 317 321 324 318 320 319 323 323 316 312 308 309 309 302 291 270 267 255 239 229 221 215 208 203 197 195 190 187
320 322 317 306 300 298 299 299 302 302 302 299 302 306 308 312 316 319 319 316 315 317 320 317 312 308 301 303 298 285 263 253 254 245 230 222 213 205 202 199 195 188 186
305 303 301 298 298 300 299 298 296 296 292 294 297 301 301 307 309 312 314 316 311 311 320 315 312 309 300 296 296 287 259 245 249 247 238 225 214 205 202 198 193 191 187
308 306 304 303 303 301 299 296 296 293 291 290 292 292 298 300 300 306 308 309 310 306 312 313 309 308 303 290 292 289 261 232 240 240 236 228 216 208 204 199 193 190 188
314 309 306 305 304 301 299 295 292 294 296 295 292 291 291 296 299 301 301 306 306 299 302 303 303 307 305 289 286 287 261 229 227 234 230 224 218 213 208 204 199 193 192